Location: Arrodets-la-Barthe
(43.0306°N, 0.2829°E)
Time: 20:11:00
(UTC+00:00)

CSL-04 Rocket - Pass Details

Date: 04 June 2022
Orbit: 807 x 859 km, 98.9° (Epoch: 25 June)

Event Time Altitude Azimuth Distance (km) Brightness Sun altitude
Rises 20:57:53 0° 209° (SSW) 3,333 6.6 -12.6°
Reaches altitude 10° 21:01:01 10° 229° (SW) 2,416 6.1 -12.9°
Maximum altitude 21:04:29 17° 269° (W) 1,967 6.1 -13.4°
Drops below altitude 10° 21:07:59 10° 310° (NW) 2,449 7.5 -13.8°
Sets 21:11:13 0° 330° (NNW) 3,400 8.7 -14.1°
